Weather History for Valdez Airport, AK

Change the Weather History Date:

Tuesday, November 6, 2012

  Actual Average Record
Temperature  
Mean Temperature 28 °F -  
Max Temperature 32 °F 36 °F 48 °F (2002)
Min Temperature 24 °F 25 °F 9 °F (1965)
Degree Days  
Heating Degree Days 37    
Moisture  
Dew Point 13 °F    
Average Humidity 53    
Maximum Humidity 74    
Minimum Humidity 38    
Precipitation  
Precipitation 0.00 in - - ()
Sea Level Pressure  
Sea Level Pressure 29.91 in    
Wind  
Wind Speed 5 mph (ESE)    
Max Wind Speed 15 mph    
Max Gust Speed 28 mph    
Visibility 10 miles    
Events      
Averages and records for this station are not official NWS values.
T = Trace of Precipitation, MM = Missing Value Source: NWS Daily Summary

Daily Weather History Graph

Daily Weather History Graph

Search for Another Location

Airport:

Trip Planner

Search our weather history database for the weather conditions in past years. The results will help you decide how hot, cold, wet, or windy it might be!

Date:

Astronomy

Nov. 06, 2012 Rise Set
Actual Time 8:27 AM AKST 4:28 PM AKST
Civil Twilight 7:39 AM AKST 5:17 PM AKST
Nautical Twilight 6:46 AM AKST 6:09 PM AKST
Astronomical Twilight 5:56 AM AKST 6:59 PM AKST
Moon 11:42 PM AKST (11/6) 2:06 PM AKST (11/6)
Length of Visible Light 9h 38m
Length of Day
8h 00m
Waning Gibbous, 51% of the Moon is Illuminated
Nov 6
Waning Gibbous
Nov 6
Last Quarter
Nov 13
New
Nov 20
First Quarter
Nov 28
Full

Hourly Weather History & Observations

Time (AKST) Temp. Windchill Dew Point Humidity Pressure Visibility Wind Dir Wind Speed Gust Speed Precip Events Conditions
12:16 AM 28.4 °F - 17.6 °F 64% 29.77 in 10.0 mi Calm Calm - N/A   Overcast
12:36 AM 28.4 °F - 17.6 °F 64% 29.77 in 10.0 mi Calm Calm - N/A   Overcast
12:56 AM 28.4 °F 24.6 °F 17.6 °F 64% 29.78 in 10.0 mi SE 3.5 mph - N/A   Overcast
1:56 AM 28.4 °F - 21.2 °F 74% 29.79 in 10.0 mi Calm Calm - N/A   Overcast
2:16 AM 28.4 °F 21.2 °F 17.6 °F 64% 29.80 in 10.0 mi SSE 6.9 mph - N/A   Overcast
2:36 AM 28.4 °F 24.6 °F 17.6 °F 64% 29.81 in 10.0 mi NNE 3.5 mph - N/A   Overcast
2:56 AM 28.4 °F 20.4 °F 17.6 °F 64% 29.81 in 10.0 mi East 8.1 mph 16.1 mph N/A   Overcast
3:16 AM 28.4 °F 19.1 °F 17.6 °F 64% 29.82 in 10.0 mi ESE 10.4 mph 16.1 mph N/A   Overcast
3:36 AM 28.4 °F - 17.6 °F 64% 29.82 in 10.0 mi Calm Calm - N/A   Overcast
3:56 AM 28.4 °F 24.6 °F 17.6 °F 64% 29.82 in 10.0 mi ESE 3.5 mph - N/A   Overcast
4:16 AM 26.6 °F 20.0 °F 17.6 °F 69% 29.82 in 9.0 mi SE 5.8 mph - N/A   Overcast
4:36 AM 26.6 °F 16.8 °F 17.6 °F 69% 29.83 in 10.0 mi ESE 10.4 mph - N/A   Overcast
4:56 AM 28.4 °F 22.2 °F 17.6 °F 64% 29.83 in 10.0 mi South 5.8 mph - N/A   Overcast
5:16 AM 28.4 °F 18.0 °F 17.6 °F 64% 29.84 in 10.0 mi East 12.7 mph 16.1 mph N/A   Overcast
5:36 AM 28.4 °F 22.2 °F 17.6 °F 64% 29.84 in 10.0 mi SSE 5.8 mph - N/A   Overcast
5:56 AM 28.4 °F 24.6 °F 15.8 °F 59% 29.84 in 10.0 mi West 3.5 mph - N/A   Overcast
6:36 AM 28.4 °F 22.2 °F 15.8 °F 59% 29.86 in 10.0 mi East 5.8 mph - N/A   Overcast
7:16 AM 28.4 °F 20.4 °F 15.8 °F 59% 29.87 in 10.0 mi SE 8.1 mph - N/A   Mostly Cloudy
7:36 AM 28.4 °F 20.4 °F 14.0 °F 55% 29.87 in 10.0 mi ESE 8.1 mph 18.4 mph N/A   Mostly Cloudy
7:56 AM 28.4 °F 24.6 °F 12.2 °F 51% 29.88 in 10.0 mi ENE 3.5 mph 16.1 mph N/A   Mostly Cloudy
8:16 AM 28.4 °F 22.2 °F 12.2 °F 51% 29.88 in 10.0 mi SE 5.8 mph - N/A   Mostly Cloudy
8:56 AM 28.4 °F 24.6 °F 15.8 °F 59% 29.89 in 10.0 mi ENE 3.5 mph - N/A   Mostly Cloudy
9:16 AM 28.4 °F 24.6 °F 12.2 °F 51% 29.90 in 10.0 mi SSE 3.5 mph - N/A   Mostly Cloudy
9:36 AM 28.4 °F 18.5 °F 12.2 °F 51% 29.90 in 10.0 mi SSE 11.5 mph 19.6 mph N/A   Mostly Cloudy
9:56 AM 28.4 °F 22.2 °F 10.4 °F 47% 29.91 in 10.0 mi SE 5.8 mph - N/A   Mostly Cloudy
10:16 AM 28.4 °F 17.5 °F 12.2 °F 51% 29.91 in 10.0 mi ESE 13.8 mph 17.3 mph N/A   Mostly Cloudy
10:36 AM 28.4 °F 18.5 °F 12.2 °F 51% 29.92 in 10.0 mi SE 11.5 mph 16.1 mph N/A   Mostly Cloudy
10:56 AM 28.4 °F 21.2 °F 12.2 °F 51% 29.93 in 10.0 mi East 6.9 mph - N/A   Partly Cloudy
11:16 AM 28.4 °F 18.5 °F 10.4 °F 47% 29.93 in 10.0 mi East 11.5 mph 21.9 mph N/A   Partly Cloudy
11:36 AM 28.4 °F 21.2 °F 10.4 °F 47% 29.93 in 10.0 mi ESE 6.9 mph 19.6 mph N/A   Partly Cloudy
11:56 AM 28.4 °F 23.3 °F 12.2 °F 51% 29.94 in 10.0 mi ENE 4.6 mph - N/A   Scattered Clouds
12:16 PM 30.2 °F 21.9 °F 12.2 °F 47% 29.93 in 10.0 mi SE 9.2 mph 17.3 mph N/A   Scattered Clouds
12:36 PM 30.2 °F 20.2 °F 12.2 °F 47% 29.94 in 10.0 mi SSE 12.7 mph 21.9 mph N/A   Scattered Clouds
12:56 PM 30.2 °F 22.6 °F 12.2 °F 47% 29.94 in 10.0 mi SSE 8.1 mph 21.9 mph N/A   Partly Cloudy
1:16 PM 30.2 °F 22.6 °F 12.2 °F 47% 29.93 in 10.0 mi ESE 8.1 mph 20.7 mph N/A   Partly Cloudy
1:36 PM 30.2 °F 19.3 °F 12.2 °F 47% 29.94 in 10.0 mi SE 15.0 mph - N/A   Partly Cloudy
1:56 PM 30.2 °F 19.8 °F 12.2 °F 47% 29.94 in 10.0 mi SE 13.8 mph 24.2 mph N/A   Partly Cloudy
2:16 PM 30.2 °F 22.6 °F 12.2 °F 47% 29.94 in 10.0 mi SE 8.1 mph - N/A   Partly Cloudy
2:36 PM 30.2 °F - 12.2 °F 47% 29.94 in 10.0 mi Calm Calm - N/A   Partly Cloudy
2:56 PM 30.2 °F 21.9 °F 12.2 °F 47% 29.94 in 10.0 mi SSE 9.2 mph 19.6 mph N/A   Partly Cloudy
3:16 PM 30.2 °F - 12.2 °F 47% 29.94 in 10.0 mi Calm Calm - N/A   Partly Cloudy
3:36 PM 28.4 °F 21.2 °F 10.4 °F 47% 29.94 in 10.0 mi SE 6.9 mph 21.9 mph N/A   Partly Cloudy
3:56 PM 28.4 °F 18.5 °F 12.2 °F 51% 29.94 in 10.0 mi SSE 11.5 mph 18.4 mph N/A   Clear
4:16 PM 28.4 °F 19.1 °F 10.4 °F 47% 29.95 in 10.0 mi SE 10.4 mph 16.1 mph N/A   Clear
4:56 PM 28.4 °F 23.3 °F 8.6 °F 43% 29.95 in 10.0 mi East 4.6 mph 17.3 mph N/A   Partly Cloudy
5:36 PM 26.6 °F 20.0 °F 10.4 °F 51% 29.96 in 10.0 mi NNW 5.8 mph 17.3 mph N/A   Partly Cloudy
5:56 PM 26.6 °F 16.2 °F 10.4 °F 51% 29.96 in 10.0 mi SE 11.5 mph 20.7 mph N/A   Partly Cloudy
6:16 PM 26.6 °F 22.6 °F 10.4 °F 51% 29.96 in 10.0 mi SSE 3.5 mph 23.0 mph N/A   Partly Cloudy
6:36 PM 26.6 °F 20.0 °F 10.4 °F 51% 29.97 in 10.0 mi NNE 5.8 mph 23.0 mph N/A   Partly Cloudy
6:56 PM 26.6 °F 22.6 °F 8.6 °F 47% 29.97 in 10.0 mi SSE 3.5 mph - N/A   Partly Cloudy
7:16 PM 24.8 °F 19.1 °F 8.6 °F 50% 29.98 in 10.0 mi SE 4.6 mph - N/A   Partly Cloudy
7:36 PM 26.6 °F 22.6 °F 10.4 °F 51% 29.99 in 10.0 mi ENE 3.5 mph - N/A   Partly Cloudy
7:56 PM 28.4 °F 20.4 °F 10.4 °F 47% 29.98 in 10.0 mi East 8.1 mph 20.7 mph N/A   Partly Cloudy
8:36 PM 28.4 °F 23.3 °F 12.2 °F 51% 29.99 in 10.0 mi East 4.6 mph - N/A   Partly Cloudy
8:56 PM 26.6 °F 20.0 °F 10.4 °F 51% 29.99 in 10.0 mi North 5.8 mph - N/A   Clear
9:36 PM 28.4 °F - 8.6 °F 43% 30.00 in 10.0 mi Calm Calm - N/A   Clear
9:56 PM 30.2 °F 23.4 °F 12.2 °F 47% 30.00 in 10.0 mi ENE 6.9 mph - N/A   Clear
11:16 PM 32.0 °F 23.0 °F 12.2 °F 44% 30.02 in 10.0 mi East 11.5 mph 27.6 mph N/A   Clear
11:36 PM 32.0 °F - 8.6 °F 38% 30.02 in 10.0 mi Calm Calm - N/A   Clear
11:56 PM 30.2 °F 21.9 °F 8.6 °F 40% 30.02 in 10.0 mi WNW 9.2 mph - N/A   Clear